Location: Chantarel
(45.1638°N, 1.7873°E)
Time: 12:16:26
(UTC+00:00)

USA 305 - Pass Details

Date: 03 March 2021
Orbit: 564 x 577 km, 54.0° (Epoch: 10 April)

Event Time Altitude Azimuth Distance (km) Brightness Sun altitude
Rises 19:44:22 0° 296° (WNW) 2,783 7.8 -22.1°
Reaches altitude 10° 19:46:56 10° 310° (NW) 1,881 6.4 -22.5°
Maximum altitude 19:50:33 26° 7° (N) 1,154 4.5 -23.1°
Enters shadow 19:50:57 25° 17° (NNE) 1,166 4.4 -23.2°
